Flight Track Log - Related Links

Times and Time Zones

All times are in EST time to prevent confusion due to time zone crossing. See the AAL1631 flight status page for this flight to view local times or setup timezone preferences in your user account.


Time Position Orientation Groundspeed Altitude Reporting Facility
EST Latitude Longitude Course Direction KTS MPH feet Rate Location/Type
Tue 10:49:30 PM 32.8833 -97.0500 205° Southwest 163 188 1,200  Level Dallas / Fort Worth TRACON
Tue 10:50:30 PM 32.8333 -97.0500 180° South 210 242 2,600 1,667 Climbing Dallas / Fort Worth TRACON
Tue 10:51:36 PM 32.7667 -97.0667 192° South 253 291 4,700 2,127 Climbing Dallas / Fort Worth TRACON
Tue 10:52:00 PM 32.9336 -97.4255 275° West  Level Estimated
Tue 10:53:00 PM 32.9456 -97.5547 275° West  Level Estimated
Tue 10:53:08 PM 32.7536 -97.1867 263° West 257 296 8,200  Level Fort Worth Center
Tue 10:54:00 PM 32.8469 -97.6103 205° Southwest  Level FlightAware Approximate
Tue 10:54:09 PM 32.7481 -97.2842 266° West 274 315 11,400  Level Fort Worth Center
Tue 10:55:10 PM 32.7436 -97.3869 267° West 319 367 13,100 2,115 Climbing Fort Worth Center
Tue 10:56:11 PM 32.7383 -97.5025 267° West 349 402 15,700 2,607 Climbing Fort Worth Center
Tue 10:57:12 PM 32.7308 -97.6214 266° West 358 412 18,400 2,508 Climbing Fort Worth Center
Tue 10:58:13 PM 32.7231 -97.7453 266° West 373 429 20,800 2,311 Climbing Fort Worth Center
Tue 10:59:14 PM 32.7169 -97.8753 267° West 390 449 23,100 2,066 Climbing Fort Worth Center
Tue 11:00:15 PM 32.7106 -97.9903 266° West 397 457 25,000 2,016 Climbing Fort Worth Center
Tue 11:01:16 PM 32.7011 -98.1517 266° West 408 470 27,200 1,967 Climbing Fort Worth Center
Tue 11:02:17 PM 32.6931 -98.2878 266° West 413 475 29,000 1,820 Climbing Fort Worth Center
Tue 11:03:18 PM 32.6847 -98.4253 266° West 418 481 30,900 1,918 Climbing Fort Worth Center
Tue 11:04:19 PM 32.6758 -98.5631 266° West 409 471 32,900 1,918 Climbing Fort Worth Center
Tue 11:05:20 PM 32.6683 -98.6928 266° West 397 457 34,800 1,623 Climbing Fort Worth Center
Tue 11:06:21 PM 32.6592 -98.8175 265° West 382 440 36,200 1,230 Climbing Fort Worth Center
Tue 11:07:22 PM 32.6519 -98.9436 266° West 383 441 37,300 885 Climbing Fort Worth Center
Tue 11:08:23 PM 32.6428 -99.0672 265° West 377 434 38,000 344 Climbing Fort Worth Center
Tue 11:09:24 PM 32.6339 -99.1922 265° West 379 436 38,000  Level Fort Worth Center
Tue 11:10:25 PM 32.6253 -99.3158 265° West 377 434 38,000  Level Fort Worth Center
Tue 11:11:26 PM 32.6172 -99.4392 266° West 375 432 38,000  Level Fort Worth Center
Tue 11:12:27 PM 32.6081 -99.5619 265° West 372 428 38,000  Level Fort Worth Center
Tue 11:13:28 PM 32.5983 -99.6844 265° West 372 428 38,000  Level Fort Worth Center
Tue 11:14:29 PM 32.5889 -99.8086 265° West 372 428 38,000  Level Fort Worth Center
Tue 11:15:30 PM 32.5814 -99.9356 266° West 374 430 38,000  Level Fort Worth Center
Tue 11:16:31 PM 32.5725 -100.0594 265° West 374 430 38,000  Level Fort Worth Center
Tue 11:17:32 PM 32.5631 -100.1839 265° West 377 434 38,000  Level Fort Worth Center
Tue 11:18:33 PM 32.5542 -100.3050 265° West 371 427 38,000  Level Fort Worth Center
Tue 11:19:34 PM 32.5450 -100.4278 265° West 372 428 38,000  Level Fort Worth Center
Tue 11:20:34 PM 32.5350 -100.5481 264° West 369 425 38,000  Level Fort Worth Center
Tue 11:21:35 PM 32.5261 -100.6686 265° West 368 423 38,000  Level Fort Worth Center
Tue 11:22:36 PM 32.5178 -100.7889 265° West 368 423 38,000  Level Fort Worth Center
Tue 11:23:37 PM 32.5069 -100.9081 264° West 364 419 38,000  Level Fort Worth Center
Tue 11:24:38 PM 32.4953 -101.0506 264° West 362 417 38,000  Level Fort Worth Center
Tue 11:25:39 PM 32.4864 -101.1697 265° West 365 420 38,000  Level Fort Worth Center
Tue 11:26:40 PM 32.4756 -101.2883 264° West 364 419 38,000  Level Fort Worth Center
Tue 11:27:41 PM 32.4667 -101.3936 264° West 360 414 38,000  Level Fort Worth Center
Tue 11:28:42 PM 32.4561 -101.5103 264° West 359 413 38,000  Level Fort Worth Center
Tue 11:29:43 PM 32.4458 -101.6275 264° West 361 415 38,000  Level Fort Worth Center
Tue 11:30:44 PM 32.4356 -101.7458 264° West 363 418 38,000  Level Fort Worth Center
Tue 11:31:44 PM 32.4225 -101.8881 264° West 365 420 38,000  Level Fort Worth Center
Tue 11:32:45 PM 32.4117 -102.0081 264° West 368 423 38,000  Level Fort Worth Center
Tue 11:33:46 PM 32.4000 -102.1292 264° West 370 426 38,000  Level Fort Worth Center
Tue 11:34:47 PM 32.3883 -102.2517 264° West 373 429 38,000  Level Fort Worth Center
Tue 11:35:48 PM 32.3764 -102.3742 263° West 372 428 38,000  Level Fort Worth Center
Tue 11:36:49 PM 32.3650 -102.4989 264° West 378 435 38,000  Level Fort Worth Center
Tue 11:37:49 PM 32.3542 -102.6225 264° West 375 432 38,000  Level Fort Worth Center
Tue 11:38:50 PM 32.3419 -102.7456 263° West 377 434 38,000  Level Fort Worth Center
Tue 11:39:51 PM 32.3303 -102.8686 264° West 376 433 38,000  Level Fort Worth Center
Tue 11:40:52 PM 32.3181 -102.9914 263° West 377 434 38,000  Level Fort Worth Center
Tue 11:41:54 PM 32.3061 -103.1142 263° West 377 434 38,000  Level Albuquerque Center
Tue 11:42:55 PM 32.2936 -103.2378 263° West 380 437 38,000  Level Albuquerque Center
Tue 11:43:56 PM 32.2806 -103.3617 263° West 381 438 38,000  Level Albuquerque Center
Tue 11:44:57 PM 32.2681 -103.4853 263° West 381 438 38,000  Level Albuquerque Center
Tue 11:45:58 PM 32.2556 -103.6106 263° West 384 442 38,000  Level Albuquerque Center
Tue 11:46:59 PM 32.2400 -103.7628 263° West 388 447 38,000  Level Albuquerque Center
Tue 11:48:00 PM 32.2283 -103.8897 264° West 391 450 38,000  Level Albuquerque Center
Tue 11:49:01 PM 32.2139 -104.0167 262° West 392 451 38,000  Level Albuquerque Center
Tue 11:50:01 PM 32.2072 -104.1253 266° West 390 449 38,000  Level Albuquerque Center
Tue 11:51:02 PM 32.2119 -104.2750 272° West 383 441 38,000  Level Albuquerque Center
Tue 11:52:03 PM 32.2164 -104.4028 272° West 388 447 38,000 -49 Level Albuquerque Center
Tue 11:53:04 PM 32.2200 -104.5292 272° West 388 447 37,900 -49 Descending Albuquerque Center
Tue 11:54:05 PM 32.2233 -104.6525 272° West 382 440 37,900 49 Level Albuquerque Center
Tue 11:55:06 PM 32.2258 -104.7758 271° West 378 435 38,000 50 Climbing Albuquerque Center
Tue 11:56:06 PM 32.2306 -104.9036 273° West 386 444 38,000  Level Albuquerque Center
Tue 11:57:07 PM 32.2331 -105.0322 271° West 391 450 38,000  Level Albuquerque Center
Tue 11:58:08 PM 32.2361 -105.1594 272° West 392 451 38,000  Level Albuquerque Center
Tue 11:59:09 PM 32.2392 -105.2889 272° West 395 455 38,000  Level Albuquerque Center
Wed 12:00:10 AM 32.2419 -105.4222 271° West 404 465 38,000 -50 Level Albuquerque Center
Wed 12:01:10 AM 32.2444 -105.5508 271° West 397 457 37,900  Descending Albuquerque Center
Wed 12:02:11 AM 32.2478 -105.6800 272° West 396 456 38,000  Climbing Albuquerque Center
Wed 12:03:12 AM 32.2506 -105.8342 271° West 394 453 37,900  Descending Albuquerque Center
Wed 12:04:13 AM 32.2533 -105.9622 272° West 392 451 38,000 50 Climbing Albuquerque Center
Wed 12:05:13 AM 32.2558 -106.0903 271° West 392 451 38,000 -50 Level Albuquerque Center
Wed 12:06:14 AM 32.2578 -106.2183 271° West 392 451 37,900  Descending Albuquerque Center
Wed 12:07:15 AM 32.2600 -106.3464 271° West 394 453 38,000 50 Climbing Albuquerque Center
Wed 12:08:15 AM 32.2619 -106.4767 271° West 396 456 38,000  Level Albuquerque Center
Wed 12:09:16 AM 32.2636 -106.6064 271° West 396 456 38,000  Level Albuquerque Center
Wed 12:10:17 AM 32.2656 -106.7356 271° West 393 452 38,000  Level Albuquerque Center
Wed 12:11:17 AM 32.2667 -106.8772 271° West 397 457 38,000  Level Albuquerque Center
Wed 12:12:18 AM 32.2681 -107.0072 271° West 397 457 38,000  Level Albuquerque Center
Wed 12:13:18 AM 32.2700 -107.1367 271° West 395 455 38,000  Level Albuquerque Center
Wed 12:14:19 AM 32.2706 -107.2564 270° West 398 458 38,000  Level Albuquerque Center
Wed 12:15:19 AM 32.2686 -107.3881 269° West 401 461 38,000 -50 Level Albuquerque Center
Wed 12:16:20 AM 32.2703 -107.5261 271° West 399 459 37,900  Descending Albuquerque Center
Wed 12:17:20 AM 32.2711 -107.6558 270° West 395 455 38,000 50 Climbing Albuquerque Center
Wed 12:18:21 AM 32.2711 -107.7858 270° West 395 455 38,000  Level Albuquerque Center
Wed 12:19:21 AM 32.2722 -107.9158 271° West 396 456 38,000  Level Albuquerque Center
Wed 12:20:22 AM 32.2719 -108.0456 270° West 395 455 38,000  Level Albuquerque Center
Wed 12:21:22 AM 32.2722 -108.1764 270° West 398 458 38,000 -50 Level Albuquerque Center
Wed 12:22:23 AM 32.2722 -108.3064 270° West 397 457 37,900  Descending Albuquerque Center
Wed 12:23:23 AM 32.2719 -108.4378 270° West 400 460 38,000 50 Climbing Albuquerque Center
Wed 12:24:24 AM 32.2719 -108.5611 270° West 399 459 38,000  Level Albuquerque Center
Wed 12:25:24 AM 32.2714 -108.6936 270° West 401 461 38,000  Level Albuquerque Center
Wed 12:26:25 AM 32.2706 -108.8261 270° West 402 463 38,000  Level Albuquerque Center
Wed 12:27:25 AM 32.2706 -108.9850 270° West 403 464 38,000  Level Albuquerque Center
Wed 12:28:26 AM 32.2692 -109.1175 269° West 403 464 38,000  Level Albuquerque Center
Wed 12:29:26 AM 32.2686 -109.2508 270° West 404 465 38,000  Level Albuquerque Center
Wed 12:30:27 AM 32.2978 -109.3808 285° West 414 476 38,000  Level Albuquerque Center
Wed 12:31:27 AM 32.3272 -109.5092 285° West 407 468 38,000  Level Albuquerque Center
Wed 12:32:28 AM 32.3589 -109.6372 286° West 404 465 38,000  Level Albuquerque Center
Wed 12:33:28 AM 32.3903 -109.7664 286° West 407 468 38,000 -99 Level Albuquerque Center
Wed 12:34:29 AM 32.4225 -109.8967 286° West 411 473 37,800 -1,289 Descending Albuquerque Center
Wed 12:35:29 AM 32.4536 -110.0242 286° West 407 468 35,400 -2,750 Descending Albuquerque Center
Wed 12:36:29 AM 32.4847 -110.1519 286° West 404 465 32,300 -2,975 Descending Albuquerque Center
Wed 12:37:30 AM 32.5158 -110.2844 286° West 413 475 29,400 -2,529 Descending Albuquerque Center
Wed 12:38:30 AM 32.5425 -110.3997 285° West 413 475 27,200 -2,281 Descending Albuquerque Center
Wed 12:39:31 AM 32.5725 -110.5253 286° West 403 464 24,800 -1,587 Descending Albuquerque Center
Wed 12:40:31 AM 32.6156 -110.6406 294° West 393 452 24,000 -600 Descending Albuquerque Center
Wed 12:41:31 AM 32.6739 -110.7503 302° West 393 452 23,600 -1,339 Descending Albuquerque Center
Wed 12:42:32 AM 32.7328 -110.8586 303° West 390 449 21,300 -2,132 Descending Albuquerque Center
Wed 12:43:32 AM 32.7892 -110.9639 303° West 382 440 19,300 -1,600 Descending Albuquerque Center
Wed 12:44:32 AM 32.8428 -111.0667 302° West 372 428 18,100 -1,240 Descending Albuquerque Center
Wed 12:45:33 AM 32.8936 -111.1675 301° West 361 415 16,800 -1,339 Descending Albuquerque Center
Wed 12:46:33 AM 32.9489 -111.2844 299° West 339 390 15,400 -1,250 Descending Albuquerque Center
Wed 12:47:33 AM 32.9914 -111.3803 298° West 328 377 14,300 -1,140 Descending Albuquerque Center
Wed 12:48:34 AM 33.0369 -111.4722 301° West 324 373 13,100 -1,140 Descending Albuquerque Center
Wed 12:49:34 AM 33.0842 -111.5631 302° West 323 372 12,000 -950 Descending Albuquerque Center
Wed 12:50:34 AM 33.1292 -111.6528 301° West 316 364 11,200 -793 Descending Albuquerque Center
Wed 12:51:35 AM 33.1736 -111.7400 301° West 309 356 10,400 -694 Descending Albuquerque Center
Wed 12:52:35 AM 33.2139 -111.8194 301° West 285 328 9,800 -550 Descending Albuquerque Center
Wed 12:53:35 AM 33.2533 -111.8975 301° West 277 319 9,300 -545 Descending Albuquerque Center
Wed 12:54:36 AM 33.2883 -111.9675 301° West 250 288 8,700 -545 Descending Albuquerque Center
Wed 12:55:36 AM 33.3228 -112.0361 301° West 242 278 8,200 -1,050 Descending Albuquerque Center
Wed 12:56:36 AM 33.3431 -112.1064 289° West 231 266 6,600 -1,500 Descending Albuquerque Center
Wed 12:57:36 AM 33.3475 -112.1806 274° West 226 260 5,200 -1,289 Descending Albuquerque Center
Wed 12:58:37 AM 33.4025 -112.1928 349° North 204 235 4,000 -1,041 Descending Albuquerque Center
Wed 12:59:37 AM 33.4311 -112.1458 54° Northeast 192 221 3,100 -950 Descending Albuquerque Center
Wed 01:00:37 AM 33.4306 -112.0883 91° East 175 201 2,100 -843 Descending Albuquerque Center
Wed 01:01:38 AM 33.4314 -112.0425 89° East 142 163 1,400 -496 Descending Albuquerque Center
Wed 01:02:38 AM 33.4311 -111.9964 90° East 145 167 1,100 -300 Descending Albuquerque Center

Login

Don't have an account? Register now (free) for customized features, flight alerts, and more!